Content
SEND FEEDBACK

Daily
Averages
Monthly
Summary
United States of America

CLEVELAND, NEW MEXICO


Home > North America > United States > New Mexico
Elevation: 8488 feet     Latitude: 35 54N     Longitude: 105 26W

WEATHER
 
SELECT A DAY
Number of Records: 160,462;   Date Range: 1/1/95 - 7/23/14
 
SHARE

PRINT THIS DATA

[ ← Previous Day ]
WEATHER ALMANAC - JANUARY 23, 2013
[ Next Day → ]
[ °C ]   °F
Weather ElementAverageHighLow
Temperature47.8 °F69.8 °F (3:12 pm)27 °F (2:53 am)
Dewpoint-9.3 °F6.1 °F (9:53 am)-18.9 °F (7:53 pm)
Humidity12.4 %31 % (2:53 am)4 % (11:53 am)
Barometer30.14 in30.25 in (6:53 am)30.05 in (12:53 pm)
Wind Speed7.5 mph17.3 mph (2:53 pm)
Wind Gust18.4 mph (1:53 pm)
Weather ElementAverage
Visibility10 mi
Wind DirectionSSE (173.8 °)

Weather ElementTotal
Precipitation---
Heating Degree Days16.6 (Base 65)
Averaged from 24 records on January 23, 2013
WEATHER CONDITIONS BREAKOUT
WIND DIRECTION BREAKOUT
WEATHER BY HOUR - JANUARY 23, 2013
[ °C ]   °F
Local TimeTemperatureDewpointHumidityBarometerVisibilityWind DirectionWind SpeedGust SpeedPrecipitationEventsConditions
1:53 AM28.0 °F-0.9 °F29 %30.12 in10.0 miNNE (30°)5.8 mphClear
2:53 AM27.0 °F0.0 °F31 %30.13 in10.0 miENE (60°)8.1 mphClear
3:53 AM28.0 °F-0.9 °F29 %30.14 in10.0 miNNE (20°)10.4 mphClear
4:53 AM30.9 °F-2.0 °F24 %30.15 in10.0 miNorth (350°)11.5 mphClear
5:53 AM34.0 °F-2.9 °F21 %30.19 in10.0 miNorth (350°)8.1 mphClear
6:53 AM28.9 °F-0.9 °F28 %30.25 in10.0 miNorth (10°)3.5 mphClear
7:53 AM39.0 °F-4.0 °F16 %30.20 in10.0 miNW (320°)3.5 mphClear
8:53 AM45.0 °F-0.9 °F15 %30.22 in10.0 miCalmClear
9:53 AM53.1 °F6.1 °F15 %30.22 in10.0 miCalmClear
10:53 AM57.9 °F-9.9 °F6 %30.19 in10.0 miSW (220°)5.8 mphClear
11:53 AM61.0 °F-15.0 °F4 %30.14 in10.0 miSSW (200°)6.9 mphClear
12:53 PM64.9 °F-16.1 °F4 %30.05 in10.0 miSouth (190°)8.1 mphClear
1:53 PM68.0 °F-18.0 °F4 %30.06 in10.0 miSouth (180°)12.7 mph18.4 mphClear
2:53 PM68.0 °F-14.1 °F4 %30.05 in10.0 miSSE (160°)17.3 mphClear
3:12 PM69.8 °F-18.4 °F4 %30.22 in10.0 miSW (220°)17.3 mphClear
3:53 PM66.0 °F-11.0 °F4 %30.06 in10.0 miWSW (250°)13.8 mphClear
4:53 PM57.0 °F-7.1 °F7 %30.10 in10.0 miWest (270°)12.7 mphClear
5:53 PM51.1 °F-18.0 °F5 %30.13 in10.0 miWest (280°)6.9 mphClear
6:53 PM46.9 °F-14.1 °F7 %30.19 in10.0 miEast (80°)5.8 mphClear
7:53 PM46.9 °F-18.9 °F6 %30.14 in10.0 miNorth (10°)4.6 mphClear
8:53 PM42.1 °F-13.0 °F9 %30.13 in10.0 miNW (320°)5.8 mphClear
9:53 PM46.0 °F-18.0 °F6 %30.07 in10.0 miCalmClear
10:53 PM43.0 °F-14.1 °F9 %30.07 in10.0 miWNW (300°)5.8 mphClear
11:53 PM44.1 °F-11.0 °F10 %30.05 in10.0 miNorth (350°)4.6 mphClear
Hourly data recorded from KLVS, located miles away from Cleveland, New Mexico







STORIES FROM OUR PARTNERS